When you browse on this site, cookies collect data to enhance your experience and personalize the content and advertising you see.
Visit our Privacy Policy to learn more. By continuing to use the site, you agree to this use of cookies and data.
  • Em Portugal
  • Lista de países
  • Para 7 dias
  • Temperatura da água
  • Mapas de satélite
  • Mapa do tempo
  • Widgets de tempo
  • user-avatar
    Iniciar Sessão

    Previsão horária em Barisal

    Hoje, 24 Maio, Sexta-feira

    Tempo Temperatura Precipitação Vento Pressão Humidade
    00:00 +32°C° 0 mm 2 m/s 754 mmHg 75%
    01:00 +33°C° 0 mm 3 m/s 753 mmHg 75%
    02:00 +33°C° 0 mm 3 m/s 753 mmHg 76%
    03:00 +33°C° 0 mm 4 m/s 753 mmHg 77%
    04:00 +33°C° 0 mm 4 m/s 753 mmHg 77%
    05:00 +33°C° 0 mm 4 m/s 753 mmHg 78%
    06:00 +33°C° 0 mm 3 m/s 754 mmHg 79%
    07:00 +33°C° 0 mm 4 m/s 754 mmHg 75%
    08:00 +34°C° 0 mm 4 m/s 754 mmHg 70%
    09:00 +35°C° 0 mm 5 m/s 754 mmHg 65%
    10:00 +38°C° 0 mm 6 m/s 754 mmHg 58%
    11:00 +40°C° 0 mm 6 m/s 754 mmHg 51%
    12:00 +41°C° 0 mm 6 m/s 753 mmHg 46%
    13:00 +40°C° 0 mm 6 m/s 753 mmHg 48%
    14:00 +40°C° 0 mm 7 m/s 752 mmHg 50%
    15:00 +40°C° 0 mm 8 m/s 752 mmHg 51%
    16:00 +38°C° 0 mm 8 m/s 751 mmHg 56%
    17:00 +36°C° 0 mm 7 m/s 751 mmHg 60%
    18:00 +36°C° 0 mm 4 m/s 751 mmHg 60%
    19:00 +35°C° 0.4 mm 5 m/s 751 mmHg 65%
    20:00 +34°C° 0.4 mm 5 m/s 752 mmHg 70%
    21:00 +33°C° 0.4 mm 6 m/s 752 mmHg 74%
    22:00 +33°C° 0 mm 5 m/s 752 mmHg 74%
    23:00 +33°C° 0 mm 5 m/s 752 mmHg 74%

    Amanhã, 25 Maio, Sábado

    Tempo Temperatura Precipitação Vento Pressão Humidade
    00:00 +33°C° 0 mm 5 m/s 752 mmHg 74%
    01:00 +33°C° 0 mm 5 m/s 752 mmHg 74%
    02:00 +33°C° 0 mm 5 m/s 752 mmHg 75%
    03:00 +33°C° 0 mm 4 m/s 752 mmHg 75%
    04:00 +33°C° 0 mm 4 m/s 752 mmHg 75%
    05:00 +33°C° 0 mm 4 m/s 752 mmHg 75%
    06:00 +33°C° 0 mm 4 m/s 752 mmHg 75%
    07:00 +34°C° 0 mm 5 m/s 752 mmHg 70%
    08:00 +35°C° 0 mm 5 m/s 752 mmHg 65%
    09:00 +36°C° 0 mm 6 m/s 752 mmHg 61%
    10:00 +36°C° 0 mm 6 m/s 752 mmHg 61%
    11:00 +36°C° 0 mm 6 m/s 752 mmHg 62%
    12:00 +36°C° 0 mm 7 m/s 752 mmHg 62%
    13:00 +38°C° 0 mm 7 m/s 751 mmHg 62%
    14:00 +38°C° 0 mm 7 m/s 751 mmHg 62%
    15:00 +38°C° 0 mm 6 m/s 750 mmHg 62%
    16:00 +36°C° 0 mm 6 m/s 750 mmHg 64%
    17:00 +36°C° 0 mm 6 m/s 749 mmHg 66%
    18:00 +35°C° 0 mm 6 m/s 748 mmHg 68%
    19:00 +35°C° 0 mm 6 m/s 749 mmHg 70%
    20:00 +34°C° 0 mm 6 m/s 750 mmHg 72%
    21:00 +34°C° 0 mm 6 m/s 751 mmHg 74%
    22:00 +33°C° 0 mm 5 m/s 751 mmHg 75%
    23:00 +33°C° 0 mm 5 m/s 751 mmHg 76%

    Depois de amanhã, 26 Maio, Domingo

    Tempo Temperatura Precipitação Vento Pressão Humidade
    00:00 +33°C° 0 mm 4 m/s 751 mmHg 77%
    01:00 +33°C° 0 mm 4 m/s 750 mmHg 78%
    02:00 +33°C° 0 mm 4 m/s 750 mmHg 79%
    03:00 +33°C° 0 mm 4 m/s 750 mmHg 80%
    04:00 +33°C° 0 mm 4 m/s 750 mmHg 81%
    05:00 +33°C° 0 mm 4 m/s 750 mmHg 81%
    06:00 +33°C° 0 mm 4 m/s 751 mmHg 81%
    07:00 +35°C° 0 mm 4 m/s 751 mmHg 73%
    08:00 +36°C° 0 mm 4 m/s 752 mmHg 65%
    09:00 +38°C° 0 mm 4 m/s 753 mmHg 57%
    10:00 +40°C° 0 mm 5 m/s 752 mmHg 53%
    11:00 +41°C° 0 mm 5 m/s 752 mmHg 49%
    12:00 +42°C° 0 mm 6 m/s 752 mmHg 45%
    13:00 +42°C° 0.1 mm 6 m/s 751 mmHg 48%
    14:00 +41°C° 0.1 mm 7 m/s 751 mmHg 50%
    15:00 +41°C° 0.1 mm 8 m/s 750 mmHg 52%
    16:00 +39°C° 0.7 mm 7 m/s 750 mmHg 56%
    17:00 +38°C° 0.7 mm 6 m/s 750 mmHg 60%
    18:00 +36°C° 0.7 mm 5 m/s 750 mmHg 65%
    19:00 +35°C° 0 mm 6 m/s 750 mmHg 68%
    20:00 +35°C° 0 mm 6 m/s 751 mmHg 72%
    21:00 +34°C° 0 mm 7 m/s 751 mmHg 76%
    22:00 +34°C° 0 mm 6 m/s 751 mmHg 77%
    23:00 +33°C° 0 mm 5 m/s 751 mmHg 79%

    27 Maio, Segunda-feira

    Tempo Temperatura Precipitação Vento Pressão Humidade
    00:00 +33°C° 0 mm 5 m/s 751 mmHg 80%
    01:00 +33°C° 0 mm 4 m/s 751 mmHg 81%
    02:00 +33°C° 0 mm 4 m/s 751 mmHg 82%
    03:00 +33°C° 0 mm 4 m/s 751 mmHg 83%
    04:00 +33°C° 0 mm 4 m/s 751 mmHg 80%
    05:00 +33°C° 0 mm 4 m/s 751 mmHg 78%
    06:00 +33°C° 0 mm 4 m/s 751 mmHg 76%
    07:00 +34°C° 0 mm 4 m/s 752 mmHg 73%
    08:00 +35°C° 0 mm 4 m/s 752 mmHg 70%
    09:00 +35°C° 0 mm 5 m/s 752 mmHg 67%
    10:00 +37°C° 0 mm 5 m/s 752 mmHg 59%
    11:00 +40°C° 0 mm 5 m/s 752 mmHg 52%
    12:00 +42°C° 0 mm 6 m/s 752 mmHg 44%
    13:00 +42°C° 0 mm 6 m/s 751 mmHg 44%
    14:00 +42°C° 0 mm 6 m/s 751 mmHg 44%
    15:00 +42°C° 0 mm 6 m/s 750 mmHg 44%
    16:00 +41°C° 0 mm 6 m/s 750 mmHg 50%
    17:00 +39°C° 0 mm 6 m/s 750 mmHg 56%
    18:00 +36°C° 0 mm 7 m/s 750 mmHg 63%
    19:00 +35°C° 0 mm 6 m/s 750 mmHg 68%
    20:00 +35°C° 0 mm 6 m/s 751 mmHg 73%
    21:00 +34°C° 0 mm 5 m/s 751 mmHg 77%
    22:00 +33°C° 0 mm 5 m/s 751 mmHg 79%
    23:00 +33°C° 0 mm 5 m/s 751 mmHg 80%

    28 Maio, Terça-feira

    Tempo Temperatura Precipitação Vento Pressão Humidade
    00:00 +33°C° 0 mm 5 m/s 751 mmHg 81%
    01:00 +33°C° 0 mm 5 m/s 751 mmHg 81%
    02:00 +33°C° 0 mm 5 m/s 751 mmHg 80%
    03:00 +33°C° 0 mm 5 m/s 751 mmHg 79%
    04:00 +33°C° 0 mm 5 m/s 751 mmHg 77%
    05:00 +33°C° 0 mm 4 m/s 752 mmHg 76%
    06:00 +33°C° 0 mm 4 m/s 752 mmHg 74%
    07:00 +35°C° 0 mm 4 m/s 752 mmHg 68%
    08:00 +36°C° 0 mm 4 m/s 753 mmHg 62%
    09:00 +37°C° 0 mm 5 m/s 753 mmHg 56%
    10:00 +40°C° 0 mm 5 m/s 753 mmHg 51%
    11:00 +41°C° 0 mm 5 m/s 753 mmHg 45%
    12:00 +43°C° 0 mm 5 m/s 752 mmHg 40%
    13:00 +43°C° 0 mm 5 m/s 752 mmHg 41%
    14:00 +44°C° 0 mm 6 m/s 751 mmHg 41%
    15:00 +44°C° 0 mm 6 m/s 750 mmHg 42%
    16:00 +41°C° 0 mm 6 m/s 750 mmHg 49%
    17:00 +39°C° 0 mm 7 m/s 750 mmHg 56%
    18:00 +36°C° 0 mm 7 m/s 750 mmHg 63%
    19:00 +35°C° 0 mm 7 m/s 751 mmHg 67%
    20:00 +35°C° 0 mm 6 m/s 751 mmHg 71%
    21:00 +34°C° 0 mm 6 m/s 752 mmHg 76%
    22:00 +34°C° 0 mm 6 m/s 752 mmHg 76%
    23:00 +34°C° 0 mm 5 m/s 752 mmHg 77%

    29 Maio, Quarta-feira

    Tempo Temperatura Precipitação Vento Pressão Humidade
    00:00 +33°C° 0 mm 5 m/s 752 mmHg 78%
    01:00 +33°C° 0 mm 4 m/s 751 mmHg 78%
    02:00 +33°C° 0 mm 4 m/s 751 mmHg 79%
    03:00 +33°C° 0 mm 4 m/s 751 mmHg 80%
    04:00 +33°C° 0 mm 4 m/s 751 mmHg 80%
    05:00 +33°C° 0 mm 4 m/s 751 mmHg 80%
    06:00 +33°C° 0 mm 4 m/s 752 mmHg 80%
    07:00 +33°C° 0 mm 4 m/s 752 mmHg 77%
    08:00 +34°C° 0 mm 5 m/s 752 mmHg 73%
    09:00 +35°C° 0 mm 5 m/s 753 mmHg 69%
    10:00 +37°C° 0 mm 5 m/s 753 mmHg 60%
    11:00 +40°C° 0 mm 6 m/s 752 mmHg 51%
    12:00 +42°C° 0 mm 6 m/s 752 mmHg 42%
    13:00 +43°C° 0 mm 7 m/s 751 mmHg 43%
    14:00 +41°C° 0 mm 7 m/s 750 mmHg 45%
    15:00 +41°C° 0 mm 7 m/s 750 mmHg 46%
    16:00 +40°C° 0 mm 7 m/s 750 mmHg 52%
    17:00 +38°C° 0 mm 7 m/s 750 mmHg 57%
    18:00 +36°C° 0 mm 7 m/s 750 mmHg 62%
    19:00 +35°C° 0 mm 6 m/s 750 mmHg 67%
    20:00 +34°C° 0 mm 6 m/s 751 mmHg 71%
    21:00 +33°C° 0 mm 6 m/s 751 mmHg 75%
    22:00 +33°C° 0 mm 6 m/s 751 mmHg 75%
    23:00 +33°C° 0 mm 6 m/s 751 mmHg 76%
    Mostrar mais